Location: N�rnberg
(49.4489°N, 11.0797°E)
Time: 12:33:53
(UTC+02:00)

ISS - Pass Details

Date: 04 January 2018
Orbit: 402 x 408 km, 51.6° (Epoch: 16 July)

Event Time Altitude Azimuth Distance (km) Brightness Sun altitude
Exits shadow 05:33:51 34° 70° (ENE) 718 -2.1 -24.5°
Drops below altitude 10° 05:35:52 10° 72° (ENE) 1,501 -0.1 -24.2°
Enters shadow 06:31:24 -70° 263° (W) 12,405 3.6 -15.4°
